| time (UTC) | temp F | wind direction | speed knots | gust knots | rain 1hr in | rain 24hr in | rain mn in | humidity % | barometer mb |
| 20260504214508 | 72 | 212 | 0.9 | 2.6 | 0.00 | 0.00 | 0.00 | 56 | 1011.0 |
| 20260504213031 | 71 | 96 | 0.9 | 3.5 | 0.00 | 0.00 | 0.00 | 56 | 1011.2 |
| 20260504211519 | 71 | 88 | 1.7 | 4.3 | 0.00 | 0.00 | 0.00 | 56 | 1011.3 |
| 20260504210027 | 71 | 74 | 1.7 | 3.5 | 0.00 | 0.00 | 0.00 | 57 | 1011.3 |
| 20260504204527 | 72 | 107 | 0.0 | 1.7 | 0.00 | 0.00 | 0.00 | 56 | 1011.4 |
| 20260504203024 | 72 | 291 | 1.7 | 2.6 | 0.00 | 0.00 | 0.00 | 55 | 1011.6 |
| 20260504201522 | 70 | 352 | 1.7 | 2.6 | 0.00 | 0.00 | 0.00 | 58 | 1011.6 |
| 20260504200022 | 69 | 244 | 0.9 | 1.7 | 0.00 | 0.00 | 0.00 | 62 | 1011.7 |
| 20260504194524 | 69 | 115 | 0.9 | 2.6 | 0.00 | 0.00 | 0.00 | 61 | 1011.7 |
| 20260504193028 | 69 | 100 | 1.7 | 1.7 | 0.00 | 0.00 | 0.00 | 61 | 1011.7 |
| 20260504191525 | 69 | 205 | 0.9 | 2.6 | 0.00 | 0.00 | 0.00 | 55 | 1011.7 |
| 20260504190016 | 69 | 350 | 1.7 | 3.5 | 0.00 | 0.00 | 0.00 | 56 | 1011.8 |
| 20260504184524 | 68 | 95 | 0.0 | 2.6 | 0.00 | 0.00 | 0.00 | 64 | 1011.9 |
| 20260504183028 | 67 | 259 | 1.7 | 2.6 | 0.00 | 0.00 | 0.00 | 60 | 1011.8 |
| 20260504181513 | 66 | 281 | 1.7 | 2.6 | 0.00 | 0.00 | 0.00 | 63 | 1011.9 |
| 20260504180018 | 64 | 281 | 1.7 | 6.1 | 0.00 | 0.00 | 0.00 | 64 | 1011.8 |
| 20260504174522 | 63 | 275 | 2.6 | 5.2 | 0.00 | 0.00 | 0.00 | 67 | 1011.8 |
| 20260504173013 | 62 | 280 | 0.9 | 6.1 | 0.00 | 0.00 | 0.00 | 71 | 1011.8 |
| 20260504171517 | 62 | 270 | 2.6 | 6.1 | 0.00 | 0.00 | 0.00 | 72 | 1011.9 |
| 20260504081519 | 50 | 310 | 0.0 | 0.0 | 0.00 | 0.00 | 0.00 | 89 | 1010.8 |
| 20260504050017 | 53 | 277 | 0.0 | 0.0 | 0.00 | 0.00 | 0.00 | 86 | 1010.7 |
| 20260504044535 | 53 | 277 | 0.0 | 0.0 | 0.00 | 0.00 | 0.00 | 85 | 1010.8 |
| 20260504043023 | 54 | 276 | 0.0 | 0.0 | 0.00 | 0.00 | 0.00 | 85 | 1010.6 |
| 20260504041525 | 55 | 276 | 0.0 | 0.9 | 0.00 | 0.00 | 0.00 | 82 | 1010.7 |
| 20260504040012 | 56 | 280 | 0.0 | 0.0 | 0.00 | 0.00 | 0.00 | 80 | 1010.6 |
| 20260504034524 | 57 | 280 | 0.0 | 0.0 | 0.00 | 0.00 | 0.00 | 76 | 1010.6 |
| 20260504033035 | 59 | 280 | 0.0 | 0.0 | 0.00 | 0.00 | 0.00 | 73 | 1010.7 |
| 20260504031528 | 61 | 280 | 0.0 | 0.0 | 0.00 | 0.00 | 0.00 | 69 | 1010.7 |
| 20260504030009 | 62 | 280 | 0.0 | 0.0 | 0.00 | 0.00 | 0.00 | 65 | 1010.6 |
| 20260504024520 | 63 | 280 | 0.0 | 0.0 | 0.00 | 0.00 | 0.00 | 64 | 1010.8 |
| 20260504023022 | 63 | 280 | 0.0 | 0.0 | 0.00 | 0.00 | 0.00 | 63 | 1010.8 |
| 20260504021531 | 63 | 280 | 0.0 | 1.7 | 0.00 | 0.00 | 0.00 | 64 | 1010.9 |
| 20260504020014 | 64 | 38 | 0.0 | 5.2 | 0.00 | 0.00 | 0.00 | 61 | 1011.1 |
| 20260504014515 | 65 | 259 | 0.9 | 3.5 | 0.00 | 0.00 | 0.00 | 62 | 1011.2 |
| 20260504013028 | 66 | 360 | 0.0 | 1.7 | 0.00 | 0.00 | 0.00 | 62 | 1011.3 |
| 20260504011524 | 65 | 282 | 0.0 | 5.2 | 0.00 | 0.00 | 0.00 | 64 | 1011.6 |
| 20260504010009 | 65 | 254 | 1.7 | 7.0 | 0.00 | 0.00 | 0.00 | 64 | 1011.6 |
| 20260504004513 | 66 | 288 | 0.0 | 4.3 | 0.00 | 0.00 | 0.00 | 66 | 1011.8 |
| 20260504003015 | 64 | 245 | 1.7 | 6.1 | 0.00 | 0.00 | 0.00 | 66 | 1011.9 |
| 20260504001522 | 63 | 272 | 4.3 | 8.7 | 0.00 | 0.00 | 0.00 | 66 | 1012.0 |
| 20260504000027 | 63 | 267 | 2.6 | 7.0 | 0.00 | 0.00 | 0.00 | 68 | 1012.1 |
| 20260503234511 | 64 | 274 | 4.3 | 8.7 | 0.00 | 0.00 | 0.00 | 67 | 1012.3 |
| 20260503233013 | 64 | 266 | 4.3 | 7.0 | 0.00 | 0.00 | 0.00 | 69 | 1012.3 |
| 20260503231520 | 63 | 301 | 1.7 | 8.7 | 0.00 | 0.00 | 0.00 | 71 | 1012.7 |
| 20260503230026 | 62 | 262 | 3.5 | 9.6 | 0.00 | 0.00 | 0.00 | 71 | 1012.9 |
| 20260503224507 | 62 | 265 | 5.2 | 13.0 | 0.00 | 0.00 | 0.00 | 72 | 1013.1 |
| 20260503223013 | 62 | 292 | 4.3 | 8.7 | 0.00 | 0.00 | 0.00 | 71 | 1013.3 |
| 20260503221529 | 63 | 279 | 3.5 | 7.0 | 0.00 | 0.00 | 0.00 | 70 | 1013.4 |
| 20260503220022 | 63 | 241 | 3.5 | 8.7 | 0.00 | 0.00 | 0.00 | 72 | 1013.6 |